Regional Weather Roundup
Issued by NWS Charleston, WV

Home | Current Version | Previous Version | Graphics & Text | Print | Product List | Glossary On
Versions: 1 2 3 4 5 6 7 8 9 10 11 12 13 14 15 16 17 18 19 20 21 22 23 24 25 26 27 28
000
ASUS41 KRLX 221610
RWRRLX
West Virginia Regional Weather Roundup
National Weather Service Charleston WV
1200 PM EDT FRI SEP 22 2017

Note: "fair" indicates few or no clouds below 12,000 feet with no
significant weather and/or obstructions to visibility.

WVZ003-221700-
Northern Panhandle of West Virginia

CITY           SKY/WX    TMP DP  RH WIND       PRES   REMARKS
WHEELING       CLOUDY    73  65  75 CALM      30.16S
$$

WVZ009-221700-
Northwest West Virginia

CITY           SKY/WX    TMP DP  RH WIND       PRES   REMARKS
PARKERSBURG    CLOUDY    76  67  73 CALM      30.16F
$$

WVZ006-221700-
Western West Virginia

CITY           SKY/WX    TMP DP  RH WIND       PRES   REMARKS
HUNTINGTON     MOSUNNY   78  67  68 NE5       30.14S
$$

WVZ015-221700-
West Central West Virginia

CITY           SKY/WX    TMP DP  RH WIND       PRES   REMARKS
CHARLESTON     MOSUNNY   76  65  68 CALM      30.14S
$$

WVZ022-031-221700-
North Central West Virginia

CITY           SKY/WX    TMP DP  RH WIND       PRES   REMARKS
CLARKSBURG     SUNNY     78  63  59 CALM      30.15F
MORGANTOWN     SUNNY     80  60  50 CALM      30.16F
$$

WVZ025-035-042-045-221700-
Southern West Virginia

CITY           SKY/WX    TMP DP  RH WIND       PRES   REMARKS
BECKLEY        SUNNY     77  62  59 N5        30.19S
LOGAN            N/A     77  66  69 CALM      30.16S
BLUEFIELD      SUNNY     75  61  61 CALM      30.21S
LEWISBURG      MOSUNNY   74  62  65 CALM      30.19S
$$

WVZ047-221700-
Northern Mountains of West Virginia

CITY           SKY/WX    TMP DP  RH WIND       PRES   REMARKS
ELKINS         SUNNY     73  60  63 CALM      30.20F
$$

WVZ052-221700-
Eastern Panhandle of West Virginia

CITY           SKY/WX    TMP DP  RH WIND       PRES   REMARKS
MARTINSBURG    MOSUNNY   80  62  54 VRB3      30.08F
PETERSBURG     MOSUNNY   79  65  60 CALM      30.12F
$$




USA.gov is the U.S. government's official web portal to all federal, state and local government web resources and services.